x

9441102 - Westport, Wa (wptw1) Weather Station

1:30 - Sun 26th Apr 2015 All times are PDT. -7 hours from GMT.

  • Wind
    7mph
  • Sea Temp 53°f
  • Aire Temp 45°f
  • Sea Pressure 1019.3mb
  • 9441102 - Westport, Wa
  • 9441102 - Westport, Wa

More Historic Weather Station data

Upgrade to MSW Pro to gain access to the past 30 days of data for over 8000 Wavebouys and Weather Stations around the globe.

Join Pro

Comparision Forecast

View Surf forecast
   
dom 04/26 1:30 7
mph
1019.3mb 53f 45f
1:24 6 7 mph 1019.2mb 53f 45f
1:18 7
mph
1019.2mb 53f 45f
1:12 6 7 mph 1019.2mb 53f 45f
1:06 7
mph
1019.2mb 53f 44f
1:00 7
mph
1019.2mb 53f 45f
12:36 3
mph
1019.1mb 53f 45f
12:30 2 5 mph 1019.2mb 53f 45f
12:24 5 6 mph 1019.2mb 53f 45f
12:18 5 6 mph 1019.1mb 53f 45f
12:12 5
mph
1019.2mb 53f 45f
12:06 3 6 mph 1019.2mb 54f 45f
12:00 6
mph
1019.2mb 54f 45f
sáb 04/25 11:30  -  mph 1018.9mb 54f 46f
11:18  -  mph 1018.9mb 54f 45f
10:36 1 3 mph 1018.7mb 53f 46f
10:30 2 3 mph 1018.6mb 53f 46f
10:24 3 5 mph 1018.5mb 53f 48f
10:18 5
mph
- - -
10:12 3
mph
- - -
10:06 2 3 mph 1018.5mb 53f 48f
10:00 1 2 mph 1018.5mb 53f 48f
9:36 3
mph
1018.5mb 53f 49f
9:30 3 5 mph 1018.5mb 53f 49f
9:24 5 6 mph 1018.6mb 53f 50f
9:18 5 6 mph 1018.5mb 53f 49f
9:12 3 6 mph 1018.5mb 53f 50f
9:06 5 6 mph - - -
9:00 5 6 mph - - -
8:36 7
mph
1018.3mb 53f 51f
8:30 6 8 mph 1018.3mb 53f 51f
8:24 7 10 mph 1018.3mb 53f 51f
8:18 6 9 mph 1018.3mb 53f 51f
8:12 8 10 mph 1018.3mb 53f 51f
8:06 7 9 mph - - -
8:00 8 10 mph 1018.2mb 53f 51f
7:36 9 10 mph 1018.2mb 53f 51f
7:30 8 9 mph 1018.1mb 53f 52f
7:24 8 10 mph 1018.1mb 53f 52f
7:18 9 10 mph 1018.1mb 53f 52f
7:12 8 10 mph 1018.1mb 53f 52f
7:06 10 11 mph 1018.1mb 53f 52f
7:00 9 10 mph 1018mb 53f 52f
6:36 9 11 mph 1018mb 54f 52f
6:30 9 11 mph 1017.9mb 54f 53f
6:24 9 10 mph 1017.8mb 53f 52f
6:18 10 11 mph 1017.7mb 53f 52f
6:12 10 11 mph 1017.7mb 53f 52f
6:06 11 13 mph 1017.6mb 53f 52f
6:00 9 13 mph 1017.6mb 53f 52f
5:36 9 11 mph 1017.5mb 53f 52f
5:30 13 14 mph 1017.5mb 53f 52f
5:24 10 14 mph 1017.5mb 53f 53f
5:18 10 13 mph 1017.5mb 53f 52f
5:12 10 13 mph 1017.4mb 53f 53f
5:06 11 13 mph 1017.5mb 53f 52f
5:00 10 13 mph 1017.5mb 53f 52f
4:36 10 13 mph 1017.4mb 53f 52f
4:30 11 13 mph 1017.4mb 53f 53f
4:24 11 13 mph 1017.4mb 53f 53f
4:18 11 15 mph 1017.4mb 53f 53f
4:12 13 14 mph 1017.4mb 53f 53f
4:06 14 15 mph 1017.3mb 53f 53f
4:00 11 14 mph 1017.3mb 53f 53f
3:36 11 14 mph 1017.3mb 53f 52f
3:30 11 13 mph 1017.2mb 53f 52f
3:24 11 14 mph 1017.3mb 53f 53f
3:18 11 14 mph 1017.2mb 53f 52f
3:12 10 14 mph 1017.2mb 53f 53f
3:06 10 14 mph 1017.2mb 53f 52f
3:00 11 15 mph 1017.2mb 53f 52f
2:36 13 14 mph 1017.1mb 53f 52f
2:30 11 14 mph 1017mb 53f 52f
2:24 13 14 mph 1017mb 53f 52f
2:18 11 14 mph 1017mb 53f 53f
2:12 11 14 mph 1016.9mb 53f 51f
2:06 10 13 mph 1016.9mb 53f 52f
2:00 10 13 mph 1016.9mb 53f 53f
1:36 10 14 mph 1016.9mb 53f 52f
1:30 10 13 mph 1016.8mb 53f 52f
1:24 10 14 mph 1016.8mb 53f 51f
1:18 10 14 mph 1016.8mb 53f 51f
1:12 10 13 mph 1016.9mb 53f 51f
1:06 10 11 mph 1016.9mb 53f 51f
1:00 9 14 mph 1016.9mb 53f 51f
12:36 10 11 mph 1016.8mb 53f 51f
12:30 9 13 mph 1016.8mb 53f 51f
12:24 9 13 mph 1016.8mb 53f 52f
12:18 9 11 mph 1016.7mb 53f 51f
12:12 8 11 mph 1016.6mb 53f 51f
12:06 8 11 mph 1016.6mb 53f 52f
12:00 7 11 mph 1016.6mb 53f 50f
11:36 7 9 mph 1016.4mb 52f 52f
11:30 7 9 mph 1016.3mb 52f 51f
11:24 7 8 mph 1016.3mb 52f 51f
11:18 7 8 mph 1016.3mb 52f 51f
11:12 6 8 mph 1016.3mb 52f 51f
11:06 7 9 mph 1016.3mb 52f 50f
11:00 6 8 mph 1016.3mb 52f 51f
10:36 2 5 mph 1016.2mb 52f 49f
10:30 1 6 mph 1016.1mb 52f 49f
10:24 2 6 mph 1016mb 52f 49f
10:18 1 3 mph 1015.9mb 52f 51f
10:12 1 5 mph 1015.9mb 52f 49f
10:06 5 6 mph 1016mb 52f 48f
10:00 6 7 mph 1015.8mb 52f 47f
9:30  -  mph 1015.5mb 52f 48f
9:24  -  mph 1015.5mb 52f 47f
9:18  -  mph 1015.6mb 52f 47f
9:12  -  mph 1015.6mb 52f 47f
9:06  -  mph 1015.6mb 52f 46f
9:00  -  mph 1015.5mb 52f 47f
8:36 7 9 mph 1015.3mb 52f 45f
8:30 7 10 mph 1015.3mb 52f 45f
8:24 9 14 mph 1015.2mb 52f 44f
8:18 11 14 mph - - -
8:12 9 22 mph - - -
8:06 17 22 mph 1015mb 52f 46f
8:00 6 7 mph 1014.9mb 52f 46f
7:24  -  mph 1014.8mb 52f 42f
7:06  -  mph 1014.5mb 52f 41f
7:00  -  mph 1014.4mb 52f 41f
6:36 6
mph
1014.1mb 52f 40f
6:30 6
mph
1014.1mb 52f 40f
6:24 6
mph
1014mb 52f 40f
6:18 6
mph
- - -
6:12 6
mph
- - -
6:06 6
mph
1013.9mb 52f 40f
6:00 5
mph
1013.9mb 52f 40f
5:36 3
mph
1013.7mb 53f 41f
5:30 3
mph
1013.7mb 53f 41f
5:24 3
mph
1013.7mb 53f 41f
5:18 3 5 mph - - -
5:12 3 5 mph - - -
5:06 3 5 mph 1013.7mb 53f 41f
5:00 3 5 mph 1013.7mb 53f 41f
4:36 5 6 mph 1013.5mb 53f 40f
4:30 5
mph
1013.5mb 53f 41f
4:24 5
mph
1013.5mb 53f 41f
4:18 3
mph
1013.5mb 53f 41f
4:12 2 3 mph 1013.5mb 53f 41f
4:06 2
mph
1013.5mb 53f 41f
4:00 2
mph
1013.5mb 53f 41f
3:36 2 3 mph 1013.4mb 53f 42f
3:30 3 5 mph 1013.3mb 53f 42f
3:24 5 6 mph 1013.3mb 53f 42f
3:18 6 7 mph 1013.3mb 53f 42f
3:12 6
mph
1013.3mb 53f 42f
3:06 6 7 mph 1013.3mb 53f 42f
3:00 6 7 mph 1013.2mb 53f 42f
2:36  -  1 mph 1013.2mb 53f 43f
2:30 1 2 mph 1013.1mb 53f 43f
2:24 2
mph
1013.1mb 53f 44f
2:18 2 3 mph 1013.1mb 53f 46f
2:12 3 5 mph 1013.1mb 53f 46f
2:06 5 6 mph 1013mb 53f 46f
2:00 5 7 mph 1013mb 53f 46f
1:54 6 7 mph 1013mb 53f 46f
1:48 5 7 mph 1012.9mb 53f 46f
1:36 6 8 mph 1012.8mb 53f 46f
1:30 8 10 mph 1012.8mb 53f 46f
1:24 7 9 mph 1012.7mb 53f 46f
1:18 8 10 mph 1012.8mb 53f 46f
1:12 10 11 mph 1012.9mb 53f 46f
1:06 10 14 mph 1013mb 53f 46f
1:00 11 14 mph 1013mb 53f 47f
12:54 11 14 mph 1012.9mb 53f 46f
12:48 13 15 mph 1012.9mb 53f 46f
12:36 14 17 mph 1012.9mb 53f 46f
12:30 14 18 mph 1012.9mb 53f 46f
12:24 16 18 mph 1012.8mb 53f 47f
12:18 16 22 mph 1012.7mb 53f 46f
12:12 18 23 mph 1012.7mb 53f 47f
12:06 13 15 mph 1012.6mb 53f 48f
12:00 10 13 mph 1012.6mb 53f 48f
vie 04/24 11:54 6 7 mph - - -
11:48 6 8 mph 1012.4mb 53f 47f
11:30  -  mph 1012.3mb 53f 47f
11:18  -  mph 1012.5mb 53f 47f
11:00  -  mph 1012.4mb 53f 47f
10:36 5
mph
1012.3mb 53f 48f
10:30 5 6 mph 1012.3mb 53f 48f
10:24 5 7 mph 1012.3mb 53f 48f
10:18 7 9 mph 1012.2mb 53f 47f
10:12 7 8 mph 1012.2mb 53f 48f
10:06 7 8 mph 1012.1mb 53f 48f
10:00 8 9 mph 1012.1mb 53f 48f
9:54 8 9 mph - - -
9:48 9 10 mph 1012.1mb 53f 48f
9:36 9 10 mph 1012.1mb 53f 48f
9:30 9 10 mph 1012.1mb 53f 48f
9:24 9 10 mph 1012.1mb 52f 48f
9:18 9 11 mph 1012.1mb 52f 48f
9:12 9 10 mph 1012.1mb 52f 48f
9:06 9 10 mph - - -
9:00 9 10 mph 1011.9mb 52f 48f
8:54 8 10 mph 1011.8mb 52f 48f
8:48 9 10 mph 1011.8mb 52f 48f
8:36 9 10 mph 1011.7mb 52f 48f
8:30 9 10 mph 1011.7mb 52f 48f
8:24 9 10 mph 1011.6mb 53f 48f
8:18 9 10 mph 1011.7mb 52f 48f
8:12 9 11 mph 1011.6mb 52f 48f
8:06 9 10 mph 1011.6mb 52f 48f
8:00 9 10 mph 1011.6mb 52f 48f
7:54 9 10 mph 1011.5mb 52f 48f
7:48 8 11 mph 1011.5mb 52f 48f
7:36 8
mph
1011.5mb 52f 48f
7:30 6 7 mph 1011.5mb 52f 49f
7:24 6
mph
1011.4mb 52f 49f
7:18 5 6 mph 1011.4mb 52f 49f
7:12 5 7 mph 1011.5mb 52f 49f
7:06 5 6 mph 1011.4mb 52f 48f
7:00 6 7 mph 1011.4mb 52f 49f
6:54 6 8 mph 1011.5mb 52f 49f
6:48 6 8 mph 1011.5mb 52f 48f
6:36 10 16 mph 1011.6mb 52f 47f
6:30 16 22 mph 1011.5mb 53f 47f
6:24 23 28 mph 1011.3mb 53f 49f
6:18 24 29 mph 1011.3mb 53f 49f
6:12 23 26 mph 1011.3mb 53f 51f
6:06 9 13 mph 1011.3mb 53f 51f
6:00 10 13 mph 1011.2mb 53f 52f
5:54 9 13 mph 1011.2mb 53f 52f
5:48 10 11 mph 1011.3mb 53f 52f
5:36 10 14 mph 1011.2mb 53f 52f
5:30 11 13 mph 1011.2mb 53f 53f
5:24 9 13 mph 1011.2mb 53f 52f
5:18 8 13 mph 1011.2mb 53f 52f
5:12 10 14 mph 1011.3mb 53f 52f
5:06 10 13 mph 1011.2mb 53f 52f
5:00 10 13 mph 1011.2mb 53f 52f
4:54 10 14 mph 1011.2mb 53f 52f
4:48 11 14 mph 1011.2mb 53f 53f
4:36 9 13 mph 1011.2mb 53f 51f
4:30 9 13 mph 1011.2mb 53f 50f
4:24 10 14 mph 1011.2mb 53f 50f
4:18 11 13 mph 1011.2mb 53f 49f
4:12 9 16 mph 1011.3mb 53f 50f
4:06 11 15 mph 1011.2mb 53f 50f
4:00 9 13 mph 1011.2mb 53f 49f
3:54 10 15 mph 1011.1mb 53f 49f
3:48 11 15 mph 1011.1mb 53f 49f
3:36 13 17 mph 1011.1mb 52f 50f
3:30 10 15 mph 1011mb 52f 50f
3:24 16 20 mph 1011mb 52f 51f
3:18 13 15 mph 1010.9mb 52f 51f
3:12 11 15 mph 1010.9mb 52f 52f
3:06 11 14 mph 1010.9mb 52f 53f
3:00 11 14 mph 1011mb 52f 52f
2:54 11 14 mph 1010.9mb 52f 53f
2:48 11 14 mph 1010.8mb 52f 53f
2:36 10 13 mph 1010.8mb 52f 53f
2:30 10 14 mph 1010.7mb 52f 53f
2:24 10 14 mph 1010.8mb 52f 52f
2:18 11 14 mph 1010.6mb 52f 52f
2:12 10 14 mph 1010.6mb 52f 53f
2:06 11 15 mph 1010.6mb 52f 53f
2:00 11 14 mph 1010.5mb 52f 52f
1:54 11 14 mph 1010.4mb 52f 52f
1:48 11 14 mph 1010.3mb 52f 52f
1:36 14 16 mph 1010.2mb 52f 52f
1:30 14 17 mph 1010.1mb 52f 52f
1:24 15 17 mph 1010mb 52f 52f
1:18 15 17 mph 1010mb 52f 52f
1:12 13 15 mph 1010mb 52f 52f
1:06 13 15 mph 1010mb 52f 53f
1:00 13 14 mph 1010.1mb 52f 52f
12:54 13 15 mph 1010.1mb 52f 53f
12:48 11 15 mph 1010.2mb 52f 52f
12:36 8 10 mph 1010.3mb 52f 51f
12:30 9 13 mph 1010.4mb 52f 51f
12:24 14 17 mph 1010.5mb 52f 50f
12:18 16 18 mph 1010.4mb 52f 51f
12:12 15 18 mph 1010.4mb 52f 53f
12:06 10 15 mph 1010.3mb 52f 52f
12:00 13 16 mph 1010.3mb 52f 50f
11:54 16 20 mph 1010.4mb 52f 51f
11:48 18 21 mph 1010.3mb 52f 52f
11:36 11 15 mph 1010.1mb 52f 52f
11:30 11 14 mph 1010.1mb 52f 51f
11:24 11 15 mph 1010mb 52f 52f
11:18 11 15 mph 1010mb 52f 51f
11:12 14 18 mph 1010mb 52f 51f
11:06 17 21 mph 1010mb 52f 51f
11:00 17 20 mph 1010mb 52f 52f
10:54 16 20 mph 1009.9mb 52f 52f
10:48 16 20 mph 1009.8mb 52f 53f
10:36 16 20 mph 1009.7mb 52f 51f
10:30 14 18 mph 1009.7mb 52f 51f
10:24 13 16 mph 1009.7mb 52f 51f
10:18 16 22 mph 1009.6mb 52f 52f
10:12 14 17 mph 1009.5mb 52f 51f
10:06 14 17 mph 1009.6mb 52f 49f
10:00 14 21 mph 1009.5mb 52f 50f
9:54 20 22 mph 1009.4mb 52f 51f
9:48 14 18 mph 1009.3mb 52f 51f
9:36 14 16 mph 1009.3mb 52f 51f
9:30 14 16 mph 1009.2mb 52f 51f
9:24 11 17 mph 1009.2mb 52f 51f
9:18 15 18 mph 1009.2mb 52f 51f
9:12 14 17 mph 1009.1mb 52f 50f
9:06 14 16 mph 1009.1mb 52f 50f
9:00 14 18 mph 1009.1mb 52f 49f
8:54 13 17 mph 1009mb 52f 48f
8:48 13 15 mph 1009mb 52f 48f
8:36 10 11 mph 1009mb 52f 47f
8:30 10 13 mph 1009mb 52f 46f
8:24 9 13 mph 1008.9mb 52f 46f
8:18 11 14 mph 1008.9mb 52f 46f
8:12 13 21 mph 1009.1mb 52f 46f
8:06 25 32 mph 1009.1mb 52f 47f
8:00 18 23 mph 1008.8mb 52f 49f
7:54 14 16 mph 1008.7mb 52f 48f
7:48 14 17 mph 1008.7mb 52f 47f
7:36 15 17 mph 1008.6mb 52f 47f
7:30 16 26 mph 1008.5mb 52f 46f
7:24 22 29 mph 1008.5mb 52f 47f
7:18 16 23 mph 1008.4mb 52f 48f
7:12 16 21 mph 1008.3mb 52f 48f
7:06 15 20 mph 1008.3mb 52f 48f
7:00 14 17 mph 1008.3mb 52f 47f
6:54 14 22 mph 1008.2mb 52f 47f
6:48 20 23 mph 1008.2mb 52f 48f
6:36 21 24 mph 1008.1mb 52f 49f
6:30 20 23 mph 1008mb 52f 49f
6:24 17 21 mph 1008mb 52f 48f
6:18 15 18 mph 1008mb 52f 48f
6:12 18 21 mph 1007.9mb 52f 48f
6:06 17 20 mph 1007.9mb 52f 48f
6:00 15 18 mph 1007.9mb 52f 48f
5:54 14 17 mph 1007.9mb 52f 48f
5:48 14 20 mph 1008mb 52f 48f
5:36 16 21 mph 1008mb 52f 48f
5:30 16 21 mph 1008mb 52f 48f
5:24 15 21 mph 1007.9mb 52f 48f
5:18 20 22 mph 1007.9mb 52f 48f
5:12 18 22 mph 1007.8mb 52f 48f
5:06 16 20 mph 1007.8mb 52f 48f
5:00 17 21 mph 1007.8mb 52f 48f
4:54 16 21 mph 1007.8mb 52f 48f
4:48 18 23 mph 1007.8mb 52f 48f
4:36 17 21 mph 1007.8mb 52f 48f
4:30 17 20 mph 1007.9mb 52f 48f
4:24 15 21 mph 1007.9mb 52f 48f
4:18 17 23 mph 1007.9mb 52f 48f
4:12 22 25 mph 1007.9mb 52f 48f
4:06 22 25 mph 1007.9mb 52f 48f
4:00 18 23 mph 1007.9mb 52f 47f
3:54 20 23 mph 1007.9mb 52f 47f
3:48 16 18 mph 1007.9mb 52f 47f
3:36 17 21 mph 1007.9mb 52f 47f
3:30 16 20 mph 1007.9mb 52f 47f
3:24 16 22 mph 1007.9mb 52f 47f
3:18 18 22 mph 1007.9mb 52f 47f
3:12 16 20 mph 1007.9mb 52f 47f
3:06 17 24 mph 1008mb 52f 47f
3:00 17 20 mph 1008mb 52f 46f
2:54 16 20 mph 1008mb 52f 46f
2:48 16 20 mph 1008mb 52f 46f
2:36 18 22 mph 1008mb 52f 47f
2:30 17 22 mph 1008mb 52f 47f
2:24 17 24 mph 1008mb 52f 47f
2:18 15 24 mph 1008.1mb 52f 47f
2:12 16 23 mph 1008.1mb 52f 47f
2:06 22 25 mph 1008.1mb 52f 47f
2:00 16 21 mph 1008.1mb 52f 47f
1:54 17 21 mph 1008.1mb 52f 47f
1:48 18 23 mph 1008.2mb 52f 47f
1:36 18 22 mph 1008.3mb 52f 47f
1:30 16 18 mph 1008.4mb 52f 46f
1:24 16 20 mph 1008.4mb 52f 46f
1:18 17 21 mph 1008.5mb 52f 45f
1:12 17 20 mph 1008.5mb 52f 45f
1:06 13 17 mph 1008.5mb 52f 45f
1:00 11 16 mph 1008.5mb 52f 45f
12:54 13 16 mph 1008.5mb 52f 45f
12:48 9 13 mph 1008.5mb 52f 45f
12:36 8 10 mph 1008.4mb 52f 45f
12:30 8 13 mph 1008.5mb 52f 45f
12:24 9 14 mph 1008.5mb 52f 45f
12:18 11 13 mph 1008.6mb 52f 45f
12:12 11 15 mph 1008.6mb 52f 45f
12:06 14 18 mph 1008.7mb 52f 45f
12:00 15 20 mph 1008.8mb 52f 45f
jue 04/23 11:54 16 21 mph - - -
11:48 14 18 mph - - -
11:30  -  mph 1009.1mb 52f 45f
11:06  -  mph 1008.8mb 52f 48f
10:48  -  mph 1008.8mb 52f 47f
10:36 15 21 mph 1008.9mb 52f 47f
10:30 16 22 mph 1008.9mb 52f 47f
10:24 17 22 mph 1008.9mb 53f 48f
10:18 15 18 mph 1008.9mb 52f 48f
10:12 13 18 mph 1009mb 52f 47f
10:06 10 14 mph - - -
10:00 10 13 mph - - -
9:54 10 14 mph 1009.2mb 52f 47f
9:48 15 17 mph 1009.3mb 52f 47f
9:36 15 21 mph 1009.4mb 52f 47f
9:30 17 24 mph 1009.3mb 52f 47f
9:24 24 31 mph 1009.3mb 52f 48f
9:18 23 31 mph 1009.2mb 52f 49f
9:12 13 18 mph 1009.2mb 52f 49f
9:06 11 15 mph - - -
9:00 10 13 mph - - -
8:54 11 15 mph 1009.1mb 52f 49f
8:48 13 16 mph 1009.2mb 52f 48f
8:30  -  mph 1009.2mb 52f 48f
8:24  -  mph 1009.2mb 52f 48f
8:18  -  mph 1009.2mb 52f 48f
8:12  -  mph 1009.3mb 52f 49f
8:06  -  mph 1009.2mb 52f 49f
8:00  -  mph 1009.2mb 52f 49f
7:54  -  mph 1009.2mb 52f 49f
7:48  -  mph 1009.3mb 52f 49f
7:36 11 15 mph 1009.4mb 52f 49f
7:30 11 15 mph 1009.3mb 52f 50f
7:24 14 16 mph 1009.3mb 52f 50f
7:18 14 16 mph - - -
7:12 15 17 mph - - -
7:06 15 17 mph 1009.5mb 52f 51f
7:00 14 17 mph 1009.5mb 52f 51f
6:54 13 16 mph 1009.6mb 52f 51f
6:48 13 14 mph 1009.6mb 52f 51f
6:36 14 16 mph 1009.7mb 52f 51f
6:30 14 16 mph 1009.8mb 52f 51f
6:24 14 17 mph 1009.8mb 52f 51f
6:18 14 17 mph 1009.8mb 52f 51f
6:12 15 17 mph 1009.8mb 52f 51f
6:06 15 17 mph 1009.8mb 52f 51f
6:00 15 17 mph 1009.8mb 52f 51f
5:54 15 17 mph 1009.8mb 52f 51f
5:48 13 15 mph 1009.9mb 52f 51f
5:36 14 15 mph 1009.8mb 52f 51f
5:30 13 15 mph 1009.8mb 52f 51f
5:24 14 17 mph 1009.8mb 52f 51f
5:18 15 17 mph 1009.7mb 52f 51f
5:12 16 18 mph 1009.7mb 52f 52f
5:06 15 17 mph 1009.7mb 52f 51f
5:00 16 18 mph 1009.7mb 52f 52f
4:54 17 20 mph 1009.7mb 52f 51f
4:48 16 18 mph 1009.7mb 52f 51f
4:36 13 15 mph 1009.7mb 52f 52f
4:30 11 14 mph 1009.8mb 52f 52f
4:24 13 14 mph 1009.9mb 52f 52f
4:18 13 16 mph 1009.9mb 52f 51f
4:12 16 20 mph 1009.9mb 52f 52f
4:06 16 18 mph 1010mb 52f 51f
4:00 17 20 mph 1009.9mb 52f 51f
3:54 16 21 mph 1009.9mb 52f 50f
3:48 20 23 mph 1010mb 52f 49f
3:36 9 14 mph 1009.8mb 52f 51f
3:30 9 13 mph 1009.8mb 52f 51f
3:24 9 13 mph 1009.7mb 52f 51f
3:18 9 11 mph 1009.7mb 52f 50f
3:12 8 10 mph 1009.8mb 52f 51f
3:06 6 9 mph 1009.8mb 52f 50f
3:00 7 9 mph 1009.8mb 52f 50f
2:54 6 8 mph 1009.9mb 52f 50f
2:48 6 10 mph 1010mb 52f 49f
2:36 6 8 mph 1010.1mb 52f 49f
2:30 7 8 mph 1010.2mb 52f 49f
2:24 6 8 mph 1010.2mb 52f 49f
2:18 7 9 mph 1010.2mb 52f 49f
2:12 7 8 mph 1010.2mb 52f 49f
2:06 7 8 mph 1010.2mb 52f 49f
2:00 6 8 mph 1010.3mb 52f 49f
1:54 6 8 mph 1010.3mb 52f 48f
1:48 6 8 mph 1010.4mb 52f 49f
1:36 8 10 mph 1010.5mb 52f 49f
1:30 9 10 mph 1010.4mb 52f 48f
1:24 9 11 mph 1010.3mb 52f 48f
1:18 11 13 mph 1010.1mb 52f 49f
1:12 11 13 mph 1010.1mb 52f 48f
1:06 10 11 mph 1010.1mb 52f 48f
1:00 9 13 mph 1010.1mb 52f 47f
12:54 13 18 mph 1010mb 52f 47f
12:48 15 23 mph 1010.3mb 52f 47f
12:36 21 29 mph 1009.9mb 52f 47f
12:30 17 25 mph 1009.8mb 52f 47f
12:24 18 29 mph 1009.8mb 52f 47f
12:18 21 31 mph 1009.8mb 52f 47f
12:12 16 24 mph 1010mb 52f 47f
12:06 21 29 mph 1010.1mb 52f 47f
12:00 18 25 mph 1010.1mb 52f 47f
11:54 14 24 mph 1010.2mb 52f 47f
11:48 17 29 mph 1010.2mb 52f 47f
11:36 18 28 mph 1010.2mb 52f 47f
11:30 15 24 mph 1010.3mb 52f 47f
11:24 16 30 mph 1010.4mb 52f 47f
11:18 22 31 mph 1010.5mb 52f 47f
11:12 18 31 mph 1010.5mb 52f 47f
11:06 16 23 mph 1010.6mb 52f 47f
11:00 17 30 mph 1010.7mb 52f 47f
10:54 15 26 mph 1010.7mb 52f 47f
10:48 15 28 mph - - -
10:36 20 26 mph 1010.8mb 52f 47f
10:30 17 28 mph 1010.9mb 52f 47f
10:24 17 29 mph 1011mb 52f 47f
10:18 20 28 mph 1011mb 52f 47f
10:12 18 32 mph 1011.1mb 52f 47f
10:06 18 26 mph 1011.1mb 52f 47f
10:00 15 21 mph 1011.3mb 52f 47f
9:54 16 25 mph 1011.3mb 52f 47f
9:48 14 23 mph 1011.3mb 52f 47f
9:36 16 22 mph 1011.5mb 52f 47f
9:30 16 21 mph 1011.6mb 52f 47f
9:24 15 22 mph 1011.6mb 52f 47f
9:18 17 23 mph 1011.7mb 52f 47f
9:12 16 24 mph 1011.8mb 52f 47f
9:06 17 25 mph 1012mb 52f 47f
9:00 15 22 mph 1012mb 52f 47f
8:54 13 20 mph 1012.2mb 52f 47f
8:48 13 17 mph - - -
8:36 11 17 mph 1012.4mb 52f 47f
8:30 9 15 mph 1012.5mb 52f 47f
8:24 11 20 mph 1012.6mb 52f 47f
8:18 10 16 mph 1012.8mb 52f 47f
8:12 10 18 mph 1012.8mb 52f 47f
8:06 9 17 mph 1012.9mb 52f 47f
8:00 9 14 mph 1013.1mb 52f 47f
7:54 9 14 mph 1013.1mb 52f 47f
7:48 8 14 mph 1013.1mb 52f 47f
7:36 7 14 mph 1013.3mb 52f 47f
7:30 9 14 mph 1013.4mb 52f 47f
7:24 9 14 mph 1013.4mb 52f 47f
7:18 9 15 mph 1013.5mb 52f 47f
7:12 9 13 mph 1013.6mb 52f 47f
7:06 8 11 mph 1013.6mb 52f 47f
7:00 8 13 mph 1013.7mb 52f 47f
6:54 8 13 mph 1013.8mb 52f 47f
6:48 8 11 mph 1013.8mb 52f 47f
6:36 8 11 mph 1013.9mb 51f 47f
6:30 9 13 mph 1014mb 51f 46f
6:24 8 11 mph 1014mb 51f 47f
6:18 9 11 mph 1014.1mb 51f 47f
6:12 9 14 mph 1014.2mb 51f 47f
6:06 10 14 mph 1014.2mb 51f 47f
6:00 9 14 mph 1014.3mb 51f 46f
5:54 10 14 mph 1014.3mb 51f 46f
5:48 10 14 mph 1014.6mb 51f 46f
5:36 8 14 mph 1014.7mb 51f 46f
5:30 8 9 mph 1014.8mb 51f 46f
5:24 6 9 mph 1014.9mb 51f 46f
5:18 7 10 mph 1015mb 51f 46f
5:12 7 10 mph 1015mb 51f 46f
5:06 7 10 mph 1015.2mb 51f 46f
5:00 6 8 mph 1015.3mb 51f 46f
4:54 7 11 mph 1015.3mb 51f 46f
4:48 8 10 mph 1015.4mb 51f 46f
4:36 6 8 mph 1015.6mb 51f 46f
4:30 7 9 mph 1015.5mb 51f 46f
4:24 7 9 mph 1015.7mb 51f 46f
4:18 7 9 mph 1015.8mb 51f 46f
4:12 7 9 mph 1015.8mb 51f 46f
4:06 6 8 mph 1015.9mb 51f 46f
4:00 6 7 mph 1015.9mb 51f 46f
3:54 6 7 mph 1016mb 51f 46f
3:48 6 7 mph 1016.2mb 51f 46f
3:36 6 7 mph 1016.2mb 51f 46f
3:30 6 7 mph 1016.3mb 51f 46f
3:24 6 7 mph 1016.3mb 51f 46f
3:18 6 8 mph 1016.4mb 52f 46f
3:12 6 7 mph 1016.5mb 52f 46f
3:06 6
mph
1016.6mb 52f 46f
3:00 5 6 mph 1016.6mb 52f 46f
2:54 5 7 mph 1016.6mb 52f 46f
2:48 5 6 mph 1016.7mb 52f 46f
2:36 5 6 mph 1016.9mb 52f 46f
2:30 5 6 mph 1016.9mb 52f 46f
2:24 5 6 mph 1017mb 52f 46f
2:18 5 8 mph 1017.1mb 52f 46f
2:12 5 6 mph 1017.2mb 52f 45f
2:06 5 6 mph 1017.3mb 52f 45f
2:00 5 6 mph 1017.4mb 52f 45f
1:54 5 7 mph 1017.4mb 52f 45f
1:48 6 8 mph 1017.6mb 52f 45f
1:36 6 7 mph 1017.7mb 53f 46f
1:30 6 8 mph 1017.8mb 53f 46f
1:24 7 8 mph 1017.8mb 53f 46f
1:18 6 8 mph 1017.9mb 53f 46f
1:12 7 8 mph 1017.9mb 53f 47f
1:06 7 8 mph 1018mb 53f 47f
1:00 7 8 mph 1018.1mb 53f 47f
12:54 7
mph
1018.1mb 53f 47f
12:48 7 8 mph 1018.2mb 53f 47f
12:36 8 9 mph 1018.4mb 53f 48f
12:30 7 8 mph 1018.4mb 53f 48f
12:24 8 9 mph 1018.5mb 53f 48f
12:18 8 9 mph 1018.6mb 53f 48f
12:12 7 10 mph 1018.7mb 53f 48f
12:06 8 9 mph 1018.7mb 53f 48f
12:00 8 10 mph 1018.7mb 53f 48f
mié 04/22 11:54 8 9 mph 1018.8mb 53f 48f
11:48 7 9 mph 1018.7mb 53f 48f
11:36 9 10 mph 1018.9mb 53f 48f
11:30 9 10 mph - - -
11:24 9 11 mph 1019mb 53f 48f
11:18 7 9 mph - - -
11:12 9 13 mph - - -
11:06 9 11 mph - - -
11:00 8 11 mph - - -
10:54 8 10 mph 1019.1mb 53f 49f
10:48 9 13 mph 1019.1mb 53f 49f
10:36 9 11 mph 1019.2mb 53f 49f
10:30 10 11 mph 1019.3mb 53f 49f
10:24 10 13 mph 1019.3mb 53f 49f
10:18 11 13 mph - - -
10:12 11 14 mph - - -
10:06 13 14 mph 1019.4mb 53f 49f
10:00 11 14 mph 1019.4mb 53f 49f
9:54 11 13 mph 1019.4mb 53f 49f
9:48 10 13 mph 1019.4mb 53f 49f
9:36 13 14 mph 1019.6mb 53f 49f
9:30 13 14 mph 1019.7mb 53f 49f
9:24 13 15 mph 1019.7mb 53f 49f
9:18 14 16 mph 1019.7mb 53f 49f
9:12 14 16 mph 1019.7mb 53f 49f
9:06 14 15 mph 1019.8mb 53f 49f
9:00 14 16 mph 1019.7mb 53f 49f
8:54 11 14 mph 1019.7mb 53f 49f
8:48 13 16 mph 1019.9mb 53f 49f
8:36 14 15 mph 1019.8mb 53f 49f
8:30 11 14 mph 1019.8mb 53f 49f
8:24 13 15 mph 1019.9mb 53f 49f
8:18 14 15 mph 1020mb 53f 49f
8:12 15 16 mph 1020.1mb 53f 49f
8:06 11 15 mph 1020.1mb 53f 49f
8:00 13 15 mph 1020.1mb 53f 49f
7:54 14 15 mph 1020.2mb 53f 49f
7:48 13 15 mph 1020.2mb 53f 49f
7:36 14 15 mph 1020.3mb 53f 49f
7:30 15 16 mph 1020.4mb 53f 49f
7:24 14 16 mph 1020.4mb 53f 49f
7:18 14 15 mph 1020.5mb 53f 49f
7:12 13 15 mph 1020.5mb 52f 49f
7:06 14 15 mph 1020.6mb 52f 50f
7:00 14 17 mph 1020.8mb 51f 50f
6:54 15 18 mph 1020.9mb 51f 50f
6:48 15 18 mph 1020.9mb 51f 50f
6:36 15 17 mph 1021mb 51f 50f
6:30 15 17 mph 1021.2mb 51f 51f
6:24 16 18 mph 1021.2mb 51f 51f
6:18 16 17 mph 1021.1mb 51f 50f
6:12 14 16 mph 1021.1mb 51f 50f
6:06 13 15 mph 1021.3mb 51f 50f
6:00 16 17 mph 1021.4mb 51f 50f
5:54 15 17 mph 1021.5mb 50f 51f
5:48 16 20 mph 1021.6mb 50f 51f
5:36 17 18 mph 1021.8mb 50f 51f
5:30 16 17 mph 1021.9mb 50f 51f
5:24 15 18 mph 1021.9mb 50f 51f
5:18 17 18 mph 1022mb 50f 51f
5:12 16 18 mph 1022.1mb 50f 51f
5:06 16 18 mph 1022.1mb 50f 51f
5:00 16 18 mph 1022.1mb 50f 51f
4:54 16 17 mph 1022.1mb 50f 51f
4:48 14 16 mph 1022.2mb 50f 51f
4:36 16 17 mph 1022.2mb 50f 51f
4:30 15 18 mph 1022.3mb 50f 51f
4:24 15 16 mph 1022.3mb 51f 51f
4:18 16 20 mph 1022.5mb 51f 51f
4:12 15 17 mph - - -
4:06 14 17 mph 1022.4mb 51f 51f
4:00 15 17 mph 1022.5mb 51f 51f
3:54 15 18 mph 1022.5mb 51f 51f
3:48 16 20 mph 1022.6mb 51f 51f
3:36 14 16 mph 1022.7mb 51f 52f
3:30 15 20 mph 1022.8mb 52f 51f
3:24 16 17 mph 1022.8mb 52f 51f
3:18 15 17 mph 1022.9mb 52f 51f
3:12 16 18 mph 1022.9mb 52f 52f
3:06 16 18 mph - - -
3:00 15 18 mph 1023mb 53f 52f
2:54 14 16 mph 1023.1mb 53f 51f
2:48 15 18 mph 1023.2mb 53f 51f
2:36 15 16 mph 1023.1mb 53f 52f
2:30 13 15 mph 1023.2mb 53f 51f
2:24 14 16 mph 1023.2mb 53f 51f
2:18 16 18 mph 1023.4mb 53f 52f
2:12 20 22 mph 1023.3mb 53f 52f
2:06 16 21 mph 1023.3mb 53f 52f
2:00 16 18 mph 1023.5mb 53f 51f
1:54 15 17 mph 1023.5mb 53f 52f
1:48 15 20 mph 1023.5mb 53f 51f
1:36 17 22 mph 1023.5mb 53f 51f
1:30 15 18 mph 1023.5mb 53f 51f
1:24 16 18 mph 1023.6mb 53f 51f
1:18 17 22 mph 1023.5mb 53f 51f
1:12 16 20 mph 1023.5mb 53f 51f
1:06 16 20 mph 1023.4mb 53f 51f
1:00 16 20 mph 1023.3mb 53f 51f
12:54 17 22 mph 1023.4mb 53f 51f
12:48 17 21 mph - - -
12:36 16 18 mph 1023.6mb 53f 51f
12:30 14 20 mph 1023.5mb 53f 51f
12:24 15 18 mph 1023.5mb 53f 51f
12:18 16 21 mph 1023.5mb 53f 51f
12:12 15 18 mph 1023.5mb 53f 50f
12:06 15 21 mph 1023.6mb 53f 50f
12:00 17 20 mph 1023.5mb 53f 51f
11:54 15 20 mph 1023.5mb 53f 50f
11:48 15 20 mph 1023.5mb 53f 51f
11:36 17 22 mph 1023.6mb 53f 50f
11:30 18 21 mph 1023.7mb 53f 50f
11:24 18 22 mph 1023.7mb 53f 51f
11:18 20 24 mph 1023.8mb 53f 51f
11:12 18 22 mph 1023.8mb 53f 50f
11:06 17 24 mph 1023.8mb 53f 50f
11:00 18 21 mph 1023.7mb 53f 50f
10:54 18 23 mph 1023.7mb 53f 50f
10:48 18 21 mph 1023.7mb 53f 50f
10:36 20 23 mph 1023.6mb 53f 50f
10:30 18 23 mph 1023.6mb 53f 51f
10:24 15 20 mph 1023.6mb 53f 50f
10:18 17 21 mph 1023.5mb 53f 50f
10:12 17 21 mph 1023.6mb 53f 49f
10:06 16 21 mph 1023.6mb 53f 49f
10:00 16 18 mph 1023.5mb 53f 50f
9:36 20 25 mph 1023.4mb 53f 50f
9:30 25 28 mph 1023.3mb 53f 49f